Wetbulb
70.78 73.33 72.26 72.85 73.34 72.61 72.18 72.11 71.90 72.15 72.54 72.44 72.16 72.14 72.32 72.18 71.91 71.59 71.53 71.56 71.61 72.02 71.49 71.20 71.03 70.57 70.57 70.28 70.09 70.77 70.54 70.10 69.96 69.91 69.94 70.18 69.95 69.85 69.59 69.53 69.32 68.76 69.63
72.12 74.00 71.51 72.58 73.12 72.90 72.73 72.09 72.08 72.23 72.36 72.42 72.01 71.96 72.17 71.76 71.74 71.62 71.61 71.71 71.61 71.70 70.67 70.43 70.20 70.06 70.26 69.84 69.99 69.93 69.86 69.38 69.12 69.37 69.84 69.50 69.33 69.33 69.06 69.01 68.83 68.11 68.92
72.18 74.02 72.17 71.60 72.74 72.90 72.62 72.40 72.42 72.65 72.67 72.23 72.01 72.03 72.05 71.82 71.85 71.82 71.40 71.00 71.19 71.03 69.62 69.84 69.73 69.67 69.38 68.87 68.94 69.27 69.26 69.20 69.28 69.43 68.77 66.94 67.40 68.16 67.85 67.54 67.75 67.14 67.29
71.76 72.53 72.40 71.27 72.22 72.54 72.11 72.15 72.32 72.69 72.43 72.13 72.20 72.28 72.28 72.04 71.72 71.28 70.94 70.53 70.41 70.32 69.10 69.52 69.42 68.82 68.05 67.71 67.83 68.12 68.10 68.23 68.62 68.58 66.54 66.60 65.75 67.04 66.99 66.35 66.28 66.23 66.06
71.56 71.90 71.75 71.08 71.51 72.16 71.94 71.99 72.00 71.80 71.45 71.43 71.72 72.32 72.16 71.82 71.31 70.77 69.84 69.84 70.11 69.85 68.38 68.80 68.53 67.66 67.02 67.12 66.83 66.62 66.30 65.91 66.03 66.70 65.59 65.75 65.56 65.25 65.62 65.65 65.12 64.84 64.96
71.69 71.28 69.39 70.08 70.61 71.03 71.75 71.75 71.71 71.21 70.67 70.94 71.20 71.58 71.67 71.45 70.79 70.08 69.47 69.45 69.82 69.71 69.04 67.58 67.42 66.81 66.78 66.40 66.03 65.79 65.13 65.51 66.05 64.51 64.45 65.15 64.48 64.84 64.89 64.38 63.67 63.50 63.10
72.08 71.64 70.37 68.60 69.51 70.20 70.78 70.04 70.07 70.76 70.40 70.71 70.70 70.64 70.63 70.62 69.96 69.20 68.74 68.70 68.62 68.70 68.45 67.16 66.64 65.99 66.05 65.79 65.34 64.92 64.81 64.38 63.96 63.70 63.78 63.43 63.54 63.76 63.83 63.41 62.86 62.51 62.37
71.27 72.03 72.05 69.26 68.97 68.79 68.06 66.94 63.05 69.07 70.09 69.93 69.93 69.95 69.96 69.53 69.09 68.73 68.47 68.03 67.67 67.36 67.24 66.72 65.85 65.28 65.18 64.88 64.14 63.37 62.90 64.30 64.37 63.67 63.39 62.95 64.02 63.47 63.36 62.75 62.06 61.73 61.54
70.79 71.31 71.05 71.19 69.31 66.76 64.21 63.00 62.15 64.83 69.36 69.34 69.12 69.19 69.00 68.29 68.20 68.57 68.59 67.80 67.10 66.82 66.46 65.91 65.48 65.15 64.54 63.96 63.57 62.58 62.38 63.74 63.86 63.12 62.58 62.68 62.96 63.04 62.93 62.35 61.69 61.21 60.69
70.01 70.24 70.96 71.02 69.30 67.44 66.70 63.57 65.93 66.81 67.95 68.31 68.78 68.36 67.77 67.89 68.19 68.18 67.89 67.10 66.75 66.36 65.83 65.41 64.98 64.74 63.98 63.44 62.72 62.47 62.05 62.82 63.53 63.03 62.73 62.52 63.03 62.85 62.39 61.80 61.15 60.74 60.34
68.41 68.65 69.70 69.87 69.47 69.31 68.91 68.74 67.03 67.14 67.31 67.83 68.30 67.25 66.38 68.24 68.27 68.31 66.86 66.11 65.80 65.36 65.23 65.13 64.78 64.08 63.46 62.93 62.58 62.52 62.56 63.58 63.31 62.66 62.22 63.27 62.89 62.76 62.11 61.31 60.68 60.11 59.78
65.89 67.53 68.29 68.74 69.11 69.46 68.87 68.85 68.40 66.53 67.64 67.85 67.94 66.51 66.35 67.02 68.01 67.40 66.44 65.11 64.76 64.60 64.43 64.39 63.91 63.18 62.25 60.98 61.50 61.67 63.21 63.88 63.36 62.57 62.02 63.29 62.79 62.50 61.80 60.98 60.28 59.76 59.20
64.41 65.33 66.59 67.36 69.06 69.04 69.35 69.50 67.49 67.45 66.56 65.90 65.90 66.47 66.20 65.75 65.09 66.93 66.78 64.80 64.08 63.57 62.45 62.33 61.90 61.51 61.18 60.50 62.20 63.21 63.58 64.00 63.29 62.67 62.10 62.87 62.56 62.22 61.59 60.87 60.30 59.67 58.85
63.05 64.77 66.20 66.89 66.61 65.52 67.81 66.01 65.92 66.47 64.66 63.98 63.88 63.82 63.11 63.28 63.74 66.13 65.61 63.84 63.00 63.29 62.50 61.49 61.69 63.59 62.44 61.31 62.23 63.06 63.39 63.39 63.01 62.55 61.79 62.18 62.24 61.97 61.87 61.01 60.26 59.51 58.71
62.63 64.04 62.83 62.44 64.77 64.15 63.01 64.47 65.69 63.58 63.67 63.07 62.57 62.44 62.00 61.99 63.44 65.34 64.68 63.87 63.60 64.95 63.22 62.40 63.25 62.62 62.20 61.70 61.84 62.37 62.58 63.33 63.31 62.55 61.84 61.97 62.10 62.31 61.57 61.19 60.59 59.84 59.16
62.68 62.82 62.26 61.07 61.01 61.81 63.99 61.87 62.82 62.71 62.22 62.03 61.95 62.14 62.14 62.43 63.57 64.50 64.78 65.32 64.65 65.19 64.15 63.57 63.16 62.31 61.56 61.47 61.05 61.90 62.12 62.91 63.31 63.12 62.14 61.67 61.65 62.15 62.34 61.52 60.84 60.63 60.09
62.55 62.62 61.62 59.93 60.53 60.18 60.56 61.24 60.68 61.24 60.94 60.44 61.01 62.19 62.15 62.79 64.29 64.56 65.08 64.22 65.21 64.21 66.01 64.70 63.05 62.35 61.36 61.26 60.70 60.94 61.25 62.26 62.23 62.72 62.01 61.27 61.18 60.85 61.75 62.51 61.85 61.09 60.78
61.85 61.61 61.87 60.58 60.31 59.85 60.15 60.65 60.36 60.89 60.62 60.01 59.67 61.52 61.83 63.36 65.23 64.77 63.72 63.43 64.74 65.24 64.64 63.14 61.96 60.63 60.48 60.56 60.13 59.95 59.87 60.54 60.92 61.34 62.04 62.61 61.29 61.08 60.73 61.78 62.33 62.37 61.65
60.73 60.83 60.30 60.71 60.22 60.10 59.89 60.91 61.23 60.62 60.76 60.44 59.90 60.74 61.92 63.49 64.29 64.21 63.06 63.37 65.65 64.20 64.05 62.96 61.98 61.69 60.37 60.11 59.25 59.03 59.02 58.65 59.01 58.84 59.45 60.84 61.88 61.45 61.04 59.99 60.91 61.46 61.74
61.49 61.14 60.03 59.82 59.76 59.38 60.83 61.03 59.93 59.75 60.03 60.63 60.31 60.65 62.42 62.68 63.17 62.64 62.82 63.99 63.82 61.85 61.62 62.28 62.37 61.99 61.34 60.53 58.64 57.75 58.60 58.46 58.19 58.01 57.60 58.15 58.66 59.34 59.82 61.01 60.57 60.30 60.35
59.23 59.44 59.02 57.88 58.42 59.07 59.43 59.39 57.98 57.69 58.54 59.08 59.23 60.84 61.84 62.92 62.68 62.89 61.54 62.50 62.58 61.92 61.67 62.92 62.64 62.38 60.81 61.48 58.46 57.67 58.13 58.59 58.82 58.43 58.19 57.88 58.10 58.50 59.37 58.99 59.10 58.85 59.51
58.67 58.90 59.27 58.64 58.80 59.03 60.49 60.23 59.69 58.26 58.89 58.07 59.24 59.96 62.53 63.20 62.43 61.95 61.69 61.86 62.41 62.18 63.48 63.38 62.74 60.96 60.89 62.14 58.03 58.25 55.11 56.40 57.61 58.97 59.53 58.67 59.98 58.45 57.94 58.97 59.23 59.29 59.39
58.43 59.39 59.09 59.16 59.20 59.60 60.34 60.14 59.45 59.20 58.95 57.44 57.89 58.53 60.58 62.27 62.21 61.67 62.95 62.56 61.90 63.31 62.91 63.41 63.65 62.74 59.42 61.61 61.57 60.35 55.50 54.06 57.50 59.97 59.49 59.46 59.39 58.87 58.95 58.47 57.81 57.49 57.79
58.50 59.19 59.84 59.67 59.75 59.52 60.50 60.02 58.57 58.70 57.22 57.30 57.28 58.74 58.92 61.84 61.24 62.00 62.68 61.66 62.28 63.52 63.52 63.40 63.65 63.40 60.99 58.40 60.86 60.77 61.96 60.78 56.19 53.67 59.36 59.76 60.48 58.63 58.81 57.78 57.24 56.03 55.02
59.75 58.45 59.43 59.18 59.22 60.14 60.43 60.44 58.49 56.70 59.77 58.38 57.60 57.88 58.79 59.78 61.25 60.71 60.68 60.72 60.37 63.35 63.37 64.02 62.88 62.65 62.04 59.52 58.47 61.06 60.70 59.98 60.45 57.10 54.20 56.53 58.04 59.23 58.69 58.41 56.19 54.30 52.80
61.33 60.11 59.77 58.66 58.57 59.43 60.18 59.92 58.70 58.19 58.63 56.67 58.06 57.87 57.73 58.92 61.32 61.73 60.05 60.01 61.00 61.54 62.70 62.12 60.87 61.05 60.98 62.21 60.89 61.69 60.20 58.19 57.33 57.90 56.82 57.94 57.96 57.77 55.12 56.48 53.82 53.08 55.56
MSLP
1005.53 1006.74 1007.89 1008.96 1009.07 1009.35 1009.65 1009.82 1010.16 1010.62 1011.05 1011.57 1012.12 1012.50 1013.20 1013.77 1013.59 1013.53 1014.16 1014.70 1015.13 1015.39 1015.86 1016.27 1016.46 1016.70 1016.96 1017.21 1017.32 1017.50 1017.62 1018.12 1018.28 1018.61 1018.74 1018.96 1019.07 1019.29 1019.51 1019.57 1019.62 1020.06 1020.17
1005.99 1007.05 1008.23 1008.97 1009.34 1009.71 1010.06 1010.31 1010.63 1010.76 1011.29 1011.88 1012.40 1012.84 1013.46 1014.02 1014.37 1013.89 1014.41 1014.98 1015.29 1015.74 1016.14 1016.55 1016.91 1017.09 1017.44 1017.80 1018.10 1018.25 1018.38 1018.55 1018.64 1018.82 1019.18 1019.59 1019.91 1019.98 1020.33 1020.40 1020.59 1021.00 1020.79
1006.40 1007.03 1008.26 1009.16 1009.47 1009.77 1010.29 1010.65 1011.00 1011.18 1011.39 1011.62 1012.57 1013.17 1013.81 1014.32 1014.63 1014.68 1014.38 1015.43 1015.57 1015.96 1016.51 1016.89 1017.30 1017.72 1018.07 1018.31 1018.64 1018.61 1018.84 1019.03 1019.01 1019.01 1019.29 1019.63 1020.38 1020.75 1021.10 1021.11 1021.25 1021.52 1021.64
1006.99 1007.49 1008.01 1009.25 1009.38 1009.63 1010.02 1010.52 1010.89 1011.17 1011.69 1011.82 1012.47 1013.12 1013.77 1014.51 1014.96 1015.18 1014.72 1015.56 1015.98 1016.33 1016.74 1017.28 1017.73 1018.21 1018.66 1018.96 1019.16 1019.13 1019.00 1019.34 1019.18 1018.90 1018.92 1020.06 1020.93 1021.43 1021.57 1021.76 1021.78 1022.10 1022.29
1007.45 1007.71 1008.16 1009.07 1009.50 1009.52 1010.07 1010.65 1011.07 1011.33 1011.55 1011.94 1012.40 1013.02 1013.76 1014.43 1015.15 1015.48 1015.57 1015.54 1016.31 1016.79 1016.96 1017.68 1018.27 1018.81 1019.29 1019.41 1019.56 1019.50 1019.49 1019.67 1019.63 1019.20 1019.31 1020.26 1021.41 1022.11 1022.24 1022.26 1022.51 1022.94 1022.81
1007.63 1007.72 1008.54 1008.87 1009.48 1009.72 1009.81 1010.73 1011.21 1011.55 1011.52 1012.15 1012.35 1013.18 1013.74 1014.53 1015.27 1015.73 1016.01 1016.26 1016.39 1016.94 1017.29 1018.22 1018.86 1019.33 1019.69 1020.03 1019.95 1019.79 1019.73 1019.74 1019.39 1019.77 1020.35 1021.25 1021.85 1022.73 1022.71 1022.94 1023.17 1023.49 1023.61
1007.94 1007.84 1008.30 1009.07 1009.94 1010.00 1009.91 1010.45 1011.07 1011.32 1011.57 1012.28 1012.20 1013.06 1013.95 1014.62 1015.53 1016.04 1016.44 1016.78 1016.84 1017.17 1017.85 1018.83 1019.28 1019.79 1020.12 1020.29 1020.26 1020.27 1020.35 1020.30 1019.60 1020.12 1020.88 1022.04 1022.62 1022.93 1023.23 1023.63 1023.66 1024.10 1024.21
1008.12 1007.80 1007.93 1009.25 1009.72 1010.45 1011.14 1011.83 1011.61 1011.16 1011.78 1012.12 1012.55 1013.24 1013.74 1014.61 1015.63 1016.31 1016.68 1017.08 1017.41 1017.76 1018.50 1019.27 1019.73 1020.17 1020.55 1020.81 1020.68 1020.67 1020.80 1020.30 1019.93 1020.62 1021.38 1022.49 1023.11 1023.35 1023.72 1024.14 1024.34 1024.59 1024.83
1008.32 1008.22 1008.04 1008.42 1009.96 1010.69 1010.62 1011.03 1012.32 1011.30 1012.05 1012.32 1012.67 1013.63 1013.96 1014.90 1015.56 1016.31 1016.95 1017.55 1017.95 1018.31 1019.01 1019.54 1020.20 1020.55 1020.97 1021.23 1021.11 1021.11 1020.93 1020.59 1020.30 1021.03 1021.94 1022.88 1023.67 1023.88 1024.19 1024.59 1024.90 1025.18 1025.48
1008.15 1008.40 1008.23 1008.17 1009.19 1009.48 1009.31 1010.49 1010.57 1010.47 1011.76 1012.29 1013.04 1013.77 1014.81 1015.35 1015.70 1016.58 1017.40 1018.04 1018.28 1018.82 1019.23 1019.93 1020.55 1021.00 1021.56 1021.69 1021.64 1021.54 1020.92 1020.77 1020.68 1021.19 1022.20 1023.43 1023.84 1024.32 1024.65 1024.99 1025.42 1025.73 1025.75
1007.95 1008.28 1008.37 1008.30 1008.84 1009.17 1008.58 1009.15 1011.27 1011.53 1011.12 1012.57 1013.12 1014.00 1015.04 1015.63 1016.14 1016.63 1017.49 1018.35 1018.59 1019.13 1019.65 1020.40 1020.87 1021.46 1022.06 1022.11 1021.89 1021.54 1021.31 1020.62 1020.83 1021.62 1022.92 1023.87 1024.06 1024.36 1024.88 1025.33 1025.85 1026.11 1026.38
1007.87 1008.16 1008.54 1008.76 1008.75 1008.98 1009.72 1009.58 1010.75 1011.86 1012.61 1012.87 1013.64 1014.38 1015.01 1015.95 1016.42 1016.41 1017.94 1018.62 1018.84 1019.52 1020.16 1020.63 1021.24 1021.81 1022.13 1022.09 1022.05 1022.16 1021.20 1020.90 1021.25 1022.22 1023.51 1024.11 1024.39 1024.77 1025.23 1025.61 1026.16 1026.48 1026.69
1007.97 1008.37 1008.66 1008.85 1009.10 1009.45 1009.87 1010.17 1010.98 1011.64 1012.29 1013.25 1013.93 1014.19 1015.30 1016.35 1016.70 1016.90 1018.20 1018.60 1019.24 1019.65 1020.26 1020.82 1021.58 1021.44 1021.32 1021.58 1021.67 1021.16 1021.43 1021.12 1021.65 1022.82 1024.13 1024.50 1024.83 1025.06 1025.50 1025.96 1026.28 1026.66 1026.83
1008.26 1008.20 1008.65 1009.03 1009.25 1009.84 1010.14 1010.86 1011.08 1011.69 1013.01 1013.34 1014.45 1015.37 1015.95 1016.91 1016.95 1017.18 1017.77 1018.21 1018.97 1019.02 1020.07 1020.48 1020.88 1020.35 1021.02 1021.29 1021.14 1021.60 1021.33 1021.17 1021.80 1023.15 1024.29 1024.72 1025.10 1025.23 1025.52 1026.03 1026.38 1026.87 1027.22
1008.10 1008.40 1009.25 1009.60 1009.35 1009.89 1010.50 1010.85 1011.30 1012.21 1013.18 1014.04 1015.27 1015.85 1017.03 1017.64 1016.76 1017.04 1017.47 1017.96 1018.44 1018.54 1019.56 1020.09 1019.86 1020.55 1020.87 1021.14 1021.46 1021.61 1021.52 1021.44 1022.06 1023.13 1024.22 1024.86 1025.20 1025.45 1025.71 1026.12 1026.48 1026.98 1027.34
1008.09 1008.78 1009.41 1009.86 1009.74 1010.09 1010.48 1011.31 1011.48 1012.39 1013.43 1014.25 1014.70 1016.08 1017.03 1017.31 1016.43 1016.69 1017.15 1017.40 1017.89 1018.08 1018.81 1019.38 1019.68 1020.40 1020.75 1021.11 1021.51 1021.58 1021.78 1021.96 1022.01 1022.83 1023.92 1024.95 1025.26 1025.51 1025.66 1026.04 1026.41 1026.76 1027.11
1008.41 1009.09 1009.75 1010.19 1010.38 1010.66 1010.82 1010.96 1011.75 1012.60 1013.41 1014.85 1015.40 1016.23 1016.79 1016.74 1016.65 1016.62 1017.09 1017.11 1017.14 1017.78 1018.44 1018.85 1019.94 1020.11 1020.40 1020.83 1021.39 1021.73 1021.91 1022.17 1022.38 1022.62 1023.47 1024.34 1025.29 1025.54 1025.59 1025.83 1026.12 1026.46 1026.78
1008.59 1009.33 1009.91 1010.46 1010.78 1010.99 1011.32 1011.20 1011.96 1012.96 1013.51 1014.59 1015.44 1016.07 1016.31 1016.30 1016.57 1016.99 1017.06 1017.21 1017.47 1017.79 1018.47 1018.98 1019.62 1019.88 1020.19 1020.56 1021.18 1021.67 1021.79 1022.29 1022.67 1022.91 1022.90 1023.43 1024.30 1024.75 1025.60 1025.90 1026.04 1026.32 1026.49
1008.77 1009.42 1009.95 1010.54 1011.05 1011.37 1011.72 1012.10 1012.61 1013.24 1014.01 1014.86 1015.43 1015.88 1016.08 1016.06 1016.49 1016.78 1017.14 1017.65 1017.87 1018.05 1018.57 1018.99 1019.49 1019.73 1020.11 1020.45 1021.02 1021.63 1021.80 1022.15 1022.57 1022.73 1023.04 1023.33 1023.54 1023.81 1024.50 1025.23 1025.67 1025.92 1026.28
1008.70 1009.37 1010.00 1010.65 1011.13 1011.39 1011.89 1012.33 1012.94 1013.54 1014.15 1014.55 1015.32 1015.60 1015.71 1015.98 1016.62 1016.85 1017.33 1017.69 1017.98 1018.56 1018.95 1019.26 1019.54 1019.83 1020.09 1020.53 1020.86 1021.38 1021.81 1021.91 1022.15 1022.44 1022.87 1023.15 1023.35 1023.80 1023.71 1023.98 1025.07 1025.43 1025.80
1008.83 1009.42 1009.94 1010.64 1011.20 1011.55 1011.89 1012.25 1012.82 1013.46 1014.22 1015.00 1015.51 1015.39 1015.85 1016.11 1016.82 1016.81 1017.34 1017.75 1018.73 1018.75 1019.09 1019.33 1019.72 1020.00 1020.29 1020.63 1020.78 1021.29 1021.86 1022.11 1022.06 1022.14 1022.42 1022.52 1022.82 1023.34 1023.63 1023.69 1024.09 1024.52 1024.81
1008.64 1009.15 1009.63 1010.29 1010.94 1011.29 1011.51 1011.98 1012.43 1013.33 1014.01 1014.83 1015.40 1015.84 1015.38 1015.61 1016.12 1016.16 1016.77 1017.78 1018.21 1018.87 1019.13 1019.41 1019.77 1020.05 1020.36 1020.63 1020.60 1020.87 1021.24 1021.86 1021.88 1021.90 1021.74 1022.08 1022.25 1022.57 1023.02 1023.22 1023.46 1023.65 1023.63
1008.05 1008.59 1009.36 1009.98 1010.46 1010.91 1011.19 1011.82 1012.56 1013.45 1014.20 1014.95 1015.44 1015.68 1015.71 1015.54 1015.98 1016.10 1016.55 1017.47 1018.44 1018.60 1018.77 1019.21 1019.54 1019.64 1019.77 1020.38 1020.66 1020.58 1020.58 1020.40 1020.16 1020.87 1021.34 1021.42 1021.76 1022.06 1022.17 1022.57 1023.03 1023.32 1023.46
1007.40 1008.38 1009.00 1009.53 1009.96 1010.62 1010.83 1011.23 1011.92 1012.33 1013.17 1013.93 1014.52 1015.22 1015.62 1015.67 1015.68 1015.83 1016.79 1017.67 1017.88 1017.98 1018.21 1018.75 1019.15 1019.33 1019.58 1020.23 1020.42 1020.55 1020.29 1020.15 1019.85 1020.09 1020.31 1020.88 1021.26 1021.54 1021.96 1022.12 1022.46 1023.01 1023.30
1006.55 1007.80 1008.56 1009.34 1009.71 1010.09 1010.54 1010.92 1011.62 1012.20 1012.56 1013.47 1014.18 1014.82 1015.52 1015.78 1016.08 1016.65 1016.97 1017.31 1017.36 1017.74 1018.15 1018.44 1018.94 1019.18 1019.50 1019.95 1020.22 1020.07 1019.87 1019.89 1019.94 1020.07 1019.79 1020.13 1020.76 1020.97 1021.27 1021.62 1022.12 1022.55 1022.92
1005.48 1007.06 1007.86 1008.78 1009.49 1009.93 1010.23 1010.81 1011.20 1011.58 1011.95 1012.84 1013.43 1014.03 1014.93 1015.38 1015.68 1016.15 1016.49 1016.72 1017.19 1017.59 1018.04 1018.37 1018.85 1019.12 1019.20 1019.47 1019.60 1019.37 1019.30 1019.35 1019.50 1019.73 1019.81 1020.01 1020.51 1020.94 1021.21 1022.50 1022.67 1022.36 1022.18
Wind_Speed
2 18 15 8 14 17 17 20 20 20 20 21 19 19 17 17 20 23 21 20 20 20 21 21 20 21 21 20 21 20 21 20 21 21 22 23 23 23 23 21 22 22 23
4 14 13 9 8 14 16 17 19 21 21 20 19 19 18 18 17 21 20 19 20 21 22 21 21 22 22 21 19 19 20 20 21 22 23 24 24 25 25 23 22 21 24
6 11 13 7 8 15 16 17 19 21 22 24 20 19 18 18 17 17 22 19 21 20 21 21 21 21 21 21 18 19 17 16 18 18 21 15 18 23 23 22 22 23 23
4 7 12 9 10 17 19 20 21 22 22 23 23 21 20 19 17 17 22 21 20 20 21 21 21 21 21 19 16 15 13 9 10 18 15 17 15 20 21 21 22 23 22
7 9 9 11 10 17 20 20 20 22 24 24 24 23 22 21 19 18 18 23 21 20 22 21 21 20 18 16 14 11 9 5 5 5 16 16 14 16 20 21 21 20 20
8 11 13 12 9 17 19 21 22 22 23 23 25 23 24 22 21 19 18 20 22 20 22 21 20 19 16 14 12 10 7 5 1 16 15 15 16 18 21 22 20 20 20
7 3 14 12 9 12 11 19 22 23 24 23 26 26 24 23 21 20 19 19 20 20 21 20 19 18 17 14 11 4 2 6 12 15 16 15 16 20 19 19 20 19 20
8 9 12 13 10 13 16 13 9 22 23 24 25 26 26 25 22 20 19 19 20 21 20 19 18 18 17 13 9 4 6 7 13 15 16 14 17 19 19 19 19 19 19
8 9 9 13 15 10 11 15 16 28 23 23 25 24 25 24 23 21 19 21 21 21 20 19 17 17 16 12 6 4 6 10 13 12 14 11 17 19 19 18 18 18 18
8 9 10 11 11 11 14 18 22 6 26 25 23 23 22 21 21 18 21 20 22 21 20 19 17 16 14 10 6 3 4 6 14 13 12 11 18 18 18 18 18 17 18
7 10 12 12 11 14 13 12 16 21 19 21 22 21 18 13 18 22 19 20 22 20 19 18 17 16 13 9 8 7 6 7 10 10 10 14 18 19 18 18 17 17 16
9 8 10 10 10 11 8 11 14 14 11 13 15 15 11 13 13 15 18 19 20 20 18 18 16 16 15 10 7 6 5 8 9 11 10 14 17 18 18 17 16 16 16
7 6 7 9 12 9 8 6 5 7 8 9 14 13 11 8 9 9 9 10 12 17 11 13 13 11 13 10 8 6 8 6 8 9 12 12 16 17 17 16 16 15 15
6 5 6 5 6 4 4 4 8 9 8 8 9 6 7 3 8 11 9 11 10 10 13 12 9 9 11 11 7 9 8 7 8 8 11 12 13 16 17 15 15 15 14
6 2 1 4 8 7 7 8 9 9 9 12 11 11 8 8 11 11 10 10 10 11 11 11 9 9 9 9 9 8 7 7 11 8 8 11 12 14 14 15 15 14 13
3 3 6 4 2 7 11 8 7 10 9 9 10 11 14 10 6 10 11 12 11 11 11 12 10 9 9 9 9 9 8 8 8 11 10 9 10 12 14 14 14 14 14
3 6 8 8 7 6 6 12 10 10 13 9 9 15 15 14 9 9 11 9 11 9 12 9 10 10 9 9 10 8 7 8 7 7 11 10 9 9 12 14 16 15 16
6 8 9 7 10 8 5 8 8 7 10 9 9 7 14 13 14 10 7 7 4 7 8 9 10 9 9 8 8 8 7 7 7 6 6 10 10 10 8 11 13 15 16
7 8 10 10 10 9 7 6 9 12 7 9 10 8 14 12 12 11 8 9 10 8 8 8 9 9 8 8 8 7 7 7 8 8 7 7 8 9 9 14 13 13 15
6 12 10 9 8 10 7 7 8 8 6 9 8 7 10 8 9 8 6 6 7 6 7 7 8 8 8 7 8 8 7 6 8 7 8 8 8 8 8 11 11 10 12
7 8 11 11 8 8 7 8 9 8 9 7 8 7 12 14 15 12 9 8 6 6 7 6 6 8 6 7 7 7 6 6 7 8 8 9 10 10 9 8 7 8 10
11 11 13 15 15 9 10 9 8 10 10 11 10 6 13 16 16 12 11 10 9 7 10 9 8 5 7 6 7 7 6 7 9 9 8 9 9 9 10 10 10 9 5
13 15 13 14 17 13 11 9 9 8 8 9 9 6 7 10 12 12 12 9 11 10 8 10 10 12 9 7 10 4 4 6 7 9 11 9 10 8 8 9 8 8 7
14 12 14 15 14 15 12 14 14 15 13 12 12 8 9 7 9 10 12 12 9 9 9 9 8 9 9 5 6 8 9 8 7 3 9 10 8 9 9 8 10 7 5
17 14 14 14 14 14 15 15 12 11 12 9 11 12 10 10 10 16 11 8 6 6 7 8 9 9 6 5 5 6 8 8 9 8 8 5 6 9 9 9 9 8 9
17 16 14 15 15 13 16 17 18 18 14 10 10 13 10 8 10 14 10 8 8 8 10 9 7 6 9 6 9 8 8 7 8 7 8 8 6 5 2 6 9 9 11
Wind_Direction
85 125 132 170 179 170 163 157 152 147 145 141 140 137 137 134 128 124 124 128 126 123 119 113 108 102 100 96 93 91 92 94 95 92 90 86 83 81 78 81 82 80 76
136 144 139 163 190 173 165 158 154 146 145 141 142 141 137 136 134 130 130 127 124 121 118 115 111 105 102 100 96 96 99 100 98 96 94 86 82 80 76 73 75 76 74
171 151 160 154 186 167 161 158 157 152 148 142 141 141 141 137 139 134 124 128 126 123 123 118 114 109 105 101 98 101 103 115 123 114 88 90 85 84 83 80 81 82 80
219 167 173 160 184 163 162 165 163 156 149 142 142 142 138 139 135 134 126 124 124 124 123 119 114 113 105 102 100 105 113 133 153 145 108 98 87 85 87 86 83 81 82
196 183 148 151 182 164 164 166 163 157 151 147 144 142 139 137 136 131 128 127 128 128 124 121 117 112 108 107 112 101 97 125 216 189 103 104 99 98 96 95 91 86 88
207 180 138 166 194 182 171 167 165 159 151 150 143 140 138 139 136 132 129 131 129 127 123 122 120 117 109 107 104 110 140 216 209 91 92 90 92 99 94 92 93 92 89
245 179 166 167 194 175 190 182 183 162 152 152 143 142 141 137 136 135 133 132 127 124 119 123 123 119 111 112 112 92 358 278 114 111 104 101 104 100 100 96 94 93 91
230 224 206 183 207 180 173 124 202 190 152 150 145 145 141 138 139 138 136 129 123 119 120 124 122 118 113 118 111 121 270 303 111 105 104 104 106 105 101 100 97 96 93
221 244 229 193 181 167 205 142 194 244 153 151 145 144 140 142 141 142 135 127 125 122 125 124 123 120 124 124 107 50 333 311 110 106 112 111 110 108 107 103 99 97 96
203 230 232 226 199 199 198 181 208 156 159 151 142 140 140 139 136 131 129 130 125 126 124 123 122 118 123 117 95 202 258 292 120 118 104 112 117 115 110 107 106 105 103
233 216 234 226 204 202 203 191 165 186 188 146 142 136 134 145 147 141 134 133 124 123 123 124 119 118 119 128 181 217 273 118 118 107 113 130 126 120 119 115 112 110 108
229 245 221 233 223 204 219 181 183 182 168 155 143 141 147 151 153 129 129 127 121 123 122 120 122 130 162 153 168 246 220 124 111 112 120 132 127 124 123 122 123 120 114
245 214 233 236 226 209 192 175 156 151 157 150 147 144 130 149 149 132 136 133 131 133 135 135 141 173 145 159 175 172 123 141 114 109 124 128 132 131 132 133 131 126 123
238 205 185 198 203 162 174 153 140 136 132 129 134 124 120 118 154 142 157 147 150 153 147 147 177 150 155 159 173 131 170 132 120 118 139 141 146 142 141 140 138 137 133
203 195 280 265 216 167 137 164 141 141 147 156 154 134 147 197 177 153 157 153 162 151 167 169 179 157 161 159 152 160 160 123 127 130 144 149 152 148 148 150 151 150 151
185 159 134 95 96 163 172 156 126 136 132 140 139 155 170 184 160 164 171 163 169 155 172 185 150 165 167 159 162 162 155 147 149 145 138 160 167 165 165 163 166 167 169
211 152 144 114 112 106 144 144 131 143 139 155 146 167 171 173 175 153 178 173 174 154 174 171 165 172 168 171 167 167 158 157 143 142 152 153 175 186 179 183 183 181 182
211 157 131 134 128 114 110 106 117 139 136 147 159 169 192 171 167 173 164 156 146 158 166 172 184 172 172 177 165 169 168 168 160 169 182 160 173 182 193 207 195 196 193
187 157 151 144 154 143 131 132 130 139 141 162 164 186 194 177 175 172 162 172 175 161 183 170 185 183 175 183 168 178 178 180 173 181 185 202 182 190 181 186 203 204 204
195 151 150 147 146 140 141 140 129 138 134 138 167 184 181 160 171 159 153 130 155 168 174 187 180 185 174 186 186 178 186 191 184 194 198 198 196 210 221 171 196 209 210
159 151 149 148 160 152 154 148 142 152 138 140 170 220 185 182 184 171 166 135 198 165 188 189 181 177 181 183 194 174 195 207 209 205 205 202 206 200 211 216 189 206 199
174 171 166 166 169 172 170 159 156 159 157 166 175 201 208 183 188 173 166 174 182 192 194 185 189 169 189 185 202 191 196 196 214 218 207 210 207 208 210 209 211 223 223
188 187 178 174 175 180 181 162 156 153 160 170 182 192 213 192 192 180 167 170 191 199 193 187 194 203 197 183 231 223 207 226 184 192 212 214 205 213 223 208 211 224 221
183 188 185 181 181 189 179 175 174 173 166 185 191 183 199 198 195 183 181 188 192 202 197 194 203 215 215 197 208 247 257 273 289 186 193 201 219 206 210 223 217 215 204
175 186 183 182 193 181 185 183 180 180 195 174 186 185 192 198 194 198 188 181 171 211 214 202 207 211 234 199 204 252 232 247 252 260 268 185 196 215 214 217 211 214 226
172 182 185 178 184 193 188 187 187 191 186 181 187 192 186 192 191 197 183 174 192 209 212 209 207 243 230 212 245 221 244 243 239 244 252 258 254 225 91 239 234 232 229